Weather History for Jasper, TX

Change the Weather History Date:

Tuesday, May 21, 2013

  Actual Average (KLFK) Record (KLFK)
Temperature  
Mean Temperature 80 °F 76 °F  
Max Temperature 88 °F 86 °F 97 °F (2005)
Min Temperature 72 °F 65 °F 50 °F (1960)
Degree Days  
Heating Degree Days 0 0  
Month to date heating degree days 1  
Since 1 July heating degree days 1914  
Cooling Degree Days 16 11  
Month to date cooling degree days 174  
Year to date cooling degree days 350  
Growing Degree Days 30 (Base 50)    
Moisture  
Dew Point 72 °F    
Average Humidity 76    
Maximum Humidity 91    
Minimum Humidity 55    
Precipitation  
Precipitation 0.00 in 0.15 in 2.00 in (1916)
Month to date precipitation 3.03  
Year to date precipitation 17.91  
Snow  
Snow 0.00 in - - ()
Month to date snowfall  
Since 1 July snowfall  
Snow Depth -    
Sea Level Pressure  
Sea Level Pressure 29.88 in    
Wind  
Wind Speed 7 mph (SSE)    
Max Wind Speed 17 mph    
Max Gust Speed 26 mph    
Visibility 9 miles    
Events Rain    
T = Trace of Precipitation, MM = Missing Value Source: NWS Daily Summary

Daily Weather History Graph

Daily Weather History Graph

Search for Another Location

Airport:

Trip Planner

Search our weather history database for the weather conditions in past years. The results will help you decide how hot, cold, wet, or windy it might be!

Date:

Astronomy

May. 21, 2013 Rise Set
Actual Time 6:17 AM CDT 8:08 PM CDT
Civil Twilight 5:50 AM CDT 8:35 PM CDT
Nautical Twilight 5:18 AM CDT 9:07 PM CDT
Astronomical Twilight 4:43 AM CDT 9:42 PM CDT
Moon 4:35 PM CDT (5/21) 3:30 AM CDT (5/21)
Length of Visible Light 14h 44m
Length of Day
13h 50m
Waxing Gibbous, 84% of the Moon is Illuminated
May 21
Waxing Gibbous
May 24
Full
May 31
Last Quarter
Jun 8
New
Jun 16
First Quarter

Hourly Weather History & Observations

Time (CDT) Temp. Heat Index Dew Point Humidity Pressure Visibility Wind Dir Wind Speed Gust Speed Precip Events Conditions
12:15 AM 77.9 °F - 72.9 °F 84% 29.91 in 10.0 mi SE 3.5 mph - N/A   Overcast
12:35 AM 77.9 °F - 72.7 °F 84% 29.91 in 10.0 mi SE 5.8 mph - N/A   Overcast
12:55 AM 77.7 °F - 72.7 °F 84% 29.91 in 10.0 mi SE 4.6 mph - N/A   Overcast
1:15 AM 77.9 °F - 72.7 °F 84% 29.92 in 10.0 mi Calm Calm - N/A   Overcast
1:35 AM 77.9 °F - 72.7 °F 84% 29.91 in 10.0 mi SSE 3.5 mph - N/A   Overcast
1:55 AM 77.9 °F - 72.7 °F 84% 29.91 in 10.0 mi SE 5.8 mph - N/A   Overcast
2:15 AM 77.4 °F - 72.9 °F 86% 29.91 in 10.0 mi SSE 4.6 mph - N/A   Overcast
2:35 AM 77.2 °F - 72.9 °F 86% 29.90 in 7.0 mi SSE 4.6 mph - N/A   Mostly Cloudy
2:55 AM 77.0 °F - 72.7 °F 86% 29.90 in 7.0 mi SE 6.9 mph - N/A   Overcast
3:15 AM 76.5 °F - 72.5 °F 87% 29.90 in 7.0 mi SSE 3.5 mph - N/A   Scattered Clouds
3:35 AM 75.9 °F - 72.5 °F 89% 29.88 in 7.0 mi South 6.9 mph - N/A   Scattered Clouds
3:55 AM 75.6 °F - 72.5 °F 90% 29.88 in 7.0 mi South 3.5 mph - N/A   Scattered Clouds
4:15 AM 75.4 °F - 72.3 °F 90% 29.88 in 7.0 mi SE 4.6 mph - N/A   Mostly Cloudy
4:35 AM 75.2 °F - 72.0 °F 90% 29.88 in 7.0 mi SE 3.5 mph - N/A   Scattered Clouds
4:55 AM 74.7 °F - 71.6 °F 90% 29.88 in 7.0 mi SSE 3.5 mph - N/A   Scattered Clouds
5:15 AM 74.5 °F - 71.6 °F 91% 29.88 in 7.0 mi Calm Calm - N/A   Clear
5:35 AM 74.3 °F - 71.2 °F 90% 29.88 in 7.0 mi SE 4.6 mph - N/A   Clear
5:55 AM 73.9 °F - 70.9 °F 90% 29.89 in 7.0 mi Calm Calm - N/A   Clear
6:15 AM 73.6 °F - 70.9 °F 91% 29.90 in 7.0 mi SSE 4.6 mph - N/A   Clear
6:35 AM 73.6 °F - 70.9 °F 91% 29.90 in 7.0 mi SE 4.6 mph - N/A   Scattered Clouds
6:55 AM 73.8 °F - 71.1 °F 91% 29.90 in 7.0 mi Calm Calm - N/A   Scattered Clouds
7:15 AM 74.5 °F - 71.4 °F 90% 29.91 in 7.0 mi South 6.9 mph - N/A   Scattered Clouds
7:35 AM 75.4 °F - 71.8 °F 89% 29.90 in 7.0 mi SSE 5.8 mph - N/A   Scattered Clouds
7:55 AM 76.3 °F - 72.1 °F 87% 29.90 in 7.0 mi SSE 9.2 mph - N/A   Clear
8:15 AM 77.4 °F - 72.5 °F 85% 29.90 in 10.0 mi South 12.7 mph 16.1 mph N/A   Scattered Clouds
8:35 AM 78.3 °F - 72.7 °F 83% 29.90 in 10.0 mi South 10.4 mph - N/A   Mostly Cloudy
8:55 AM 79.0 °F - 72.7 °F 81% 29.90 in 10.0 mi South 10.4 mph - N/A   Overcast
9:15 AM 80.4 °F 84.5 °F 72.3 °F 76% 29.90 in 10.0 mi South 10.4 mph 18.4 mph N/A   Overcast
9:35 AM 82.2 °F 87.1 °F 71.8 °F 71% 29.90 in 10.0 mi South 15.0 mph 21.9 mph N/A   Scattered Clouds
9:55 AM 82.9 °F 87.7 °F 71.6 °F 68% 29.90 in 10.0 mi South 13.8 mph 20.7 mph N/A   Scattered Clouds
10:15 AM 83.1 °F 88.1 °F 71.8 °F 68% 29.90 in 10.0 mi SSE 8.1 mph 16.1 mph N/A   Mostly Cloudy
10:35 AM 83.3 °F 88.4 °F 71.8 °F 68% 29.90 in 10.0 mi South 17.3 mph 21.9 mph N/A   Mostly Cloudy
10:55 AM 82.9 °F 88.0 °F 72.0 °F 69% 29.91 in 10.0 mi South 10.4 mph 20.7 mph N/A   Scattered Clouds
11:15 AM 84.0 °F 89.9 °F 72.3 °F 68% 29.91 in 10.0 mi South 12.7 mph 19.6 mph N/A   Clear
11:35 AM 84.9 °F 90.7 °F 72.1 °F 65% 29.91 in 10.0 mi South 11.5 mph 20.7 mph N/A   Scattered Clouds
11:55 AM 85.6 °F 91.8 °F 72.1 °F 64% 29.91 in 10.0 mi South 11.5 mph 18.4 mph N/A   Scattered Clouds
12:15 PM 85.8 °F 91.5 °F 71.6 °F 62% 29.90 in 10.0 mi SSE 11.5 mph 18.4 mph N/A   Scattered Clouds
12:35 PM 86.2 °F 91.8 °F 71.2 °F 61% 29.90 in 10.0 mi South 9.2 mph 17.3 mph N/A   Mostly Cloudy
12:55 PM 86.4 °F 92.6 °F 71.8 °F 62% 29.89 in 10.0 mi South 13.8 mph 17.3 mph N/A   Mostly Cloudy
1:15 PM 88.0 °F 94.2 °F 71.6 °F 58% 29.88 in 10.0 mi SSE 12.7 mph 21.9 mph N/A   Scattered Clouds
1:35 PM 88.2 °F 94.1 °F 71.1 °F 57% 29.88 in 10.0 mi SSE 10.4 mph 18.4 mph N/A   Scattered Clouds
1:55 PM 87.8 °F 93.0 °F 70.5 °F 56% 29.87 in 10.0 mi SSE 12.7 mph 20.7 mph N/A   Mostly Cloudy
2:15 PM 87.8 °F 93.0 °F 70.2 °F 56% 29.86 in 10.0 mi South 9.2 mph 23.0 mph N/A   Scattered Clouds
2:35 PM 88.2 °F 93.7 °F 70.9 °F 56% 29.85 in 10.0 mi South 12.7 mph 20.7 mph N/A   Scattered Clouds
2:55 PM 87.8 °F 93.4 °F 70.7 °F 57% 29.85 in 10.0 mi South 13.8 mph 20.7 mph N/A   Scattered Clouds
3:15 PM 87.4 °F 93.1 °F 70.9 °F 58% 29.85 in 10.0 mi South 11.5 mph 20.7 mph N/A   Scattered Clouds
3:35 PM 87.3 °F 92.8 °F 70.7 °F 58% 29.84 in 10.0 mi SSE 6.9 mph - N/A   Mostly Cloudy
3:55 PM 87.1 °F 92.8 °F 71.1 °F 59% 29.83 in 10.0 mi South 10.4 mph 18.4 mph N/A   Mostly Cloudy
4:15 PM 88.2 °F 93.3 °F 70.3 °F 55% 29.82 in 10.0 mi South 17.3 mph 25.3 mph N/A   Scattered Clouds
4:35 PM 87.4 °F 92.7 °F 70.7 °F 57% 29.80 in 10.0 mi South 12.7 mph 18.4 mph N/A   Mostly Cloudy
4:55 PM 86.5 °F 92.1 °F 71.2 °F 60% 29.79 in 10.0 mi South 10.4 mph 21.9 mph N/A   Scattered Clouds
5:15 PM 86.7 °F 92.9 °F 71.8 °F 61% 29.77 in 10.0 mi SSE 11.5 mph 20.7 mph N/A   Scattered Clouds
5:35 PM 85.1 °F 90.8 °F 71.6 °F 64% 29.76 in 10.0 mi South 15.0 mph 26.5 mph N/A   Scattered Clouds
5:55 PM 84.7 °F 90.4 °F 71.8 °F 65% 29.76 in 10.0 mi South 16.1 mph 21.9 mph N/A   Scattered Clouds
6:15 PM 84.2 °F 90.3 °F 72.5 °F 68% 29.78 in 10.0 mi SSE 9.2 mph 24.2 mph N/A   Mostly Cloudy
6:35 PM 82.8 °F 88.2 °F 72.7 °F 71% 29.80 in 10.0 mi SSE 9.2 mph - N/A   Mostly Cloudy
6:55 PM 82.4 °F 87.7 °F 72.5 °F 72% 29.80 in 10.0 mi South 8.1 mph - N/A   Mostly Cloudy
7:15 PM 82.0 °F 87.2 °F 72.7 °F 73% 29.81 in 10.0 mi South 8.1 mph - N/A   Scattered Clouds
7:35 PM 81.3 °F 85.9 °F 72.5 °F 74% 29.83 in 10.0 mi South 8.1 mph - N/A   Mostly Cloudy
7:55 PM 80.4 °F 84.7 °F 72.7 °F 77% 29.84 in 10.0 mi SSE 3.5 mph - N/A   Scattered Clouds
8:15 PM 79.7 °F - 73.0 °F 80% 29.85 in 10.0 mi Calm Calm - N/A   Scattered Clouds
8:35 PM 79.3 °F - 73.2 °F 81% 29.87 in 10.0 mi Calm Calm - N/A   Mostly Cloudy
8:55 PM 79.2 °F - 73.0 °F 81% 29.88 in 10.0 mi Calm Calm - N/A   Mostly Cloudy
9:15 PM 79.2 °F - 73.2 °F 82% 29.88 in 10.0 mi East 4.6 mph - N/A   Overcast
9:35 PM 78.6 °F - 73.4 °F 84% 29.89 in 10.0 mi Calm Calm - N/A   Overcast
9:55 PM 78.4 °F - 73.4 °F 84% 29.89 in 10.0 mi Calm Calm - N/A   Overcast
10:15 PM 78.4 °F - 73.4 °F 84% 29.89 in 10.0 mi SE 6.9 mph - N/A   Mostly Cloudy
10:35 PM 78.4 °F - 73.4 °F 84% 29.90 in 10.0 mi Calm Calm - N/A   Mostly Cloudy
10:55 PM 78.1 °F - 73.2 °F 85% 29.90 in 10.0 mi NE 4.6 mph - N/A   Overcast
11:15 PM 76.5 °F - 68.9 °F 77% 29.90 in 10.0 mi NE 12.7 mph - N/A   Overcast
11:35 PM 73.9 °F - 64.6 °F 72% 29.90 in 10.0 mi East 5.8 mph - N/A   Mostly Cloudy
11:55 PM 72.9 °F - 64.4 °F 75% 29.94 in 10.0 mi NNW 15.0 mph - N/A Rain Light Rain